Theta_e
308 308 308 308 309 309 309 309 310 310 310 310 311 313 314 312 307 302 294 300 305 310 310 307 305 303 303 300 305 308 295 292 294 293 297 298 296 300 301 300 301 301 299 300 302
307 307 307 307 308 309 310 310 309 309 309 309 310 312 313 312 300 294 300 305 307 309 301 302 298 300 299 298 300 298 294 294 296 295 293 295 295 296 296 297 294 294 297 298 299
305 306 307 309 310 312 314 312 310 309 308 309 309 310 312 314 297 290 302 304 306 305 301 303 301 299 298 299 296 296 294 295 293 294 294 293 293 296 293 292 289 289 292 295 297
304 305 307 309 312 313 312 311 311 311 309 309 308 310 312 305 288 291 301 302 304 301 301 301 299 296 296 295 297 293 294 293 294 292 289 288 293 292 289 288 291 292 293 294 294
304 304 306 310 311 312 311 309 307 309 309 308 308 308 298 291 286 293 299 298 298 299 298 298 296 295 293 294 294 292 292 293 293 290 287 289 289 291 288 291 292 292 292 293 293
304 304 306 309 309 312 312 311 309 308 309 310 309 301 295 287 293 294 295 295 296 299 298 299 296 298 294 293 292 292 292 291 290 287 287 285 289 291 289 292 291 291 291 292 291
304 303 305 306 307 307 310 306 309 312 310 304 297 295 290 284 293 295 295 295 298 297 294 294 297 296 295 290 291 291 288 289 286 285 283 285 285 284 289 291 290 290 290 291 291
303 302 303 305 306 306 305 303 304 304 303 299 297 295 285 291 295 292 294 295 296 296 294 294 294 290 289 289 288 286 287 285 282 283 283 284 280 285 289 289 288 289 289 290 290
302 301 303 304 305 305 304 301 300 300 297 298 295 293 283 292 288 291 293 290 293 293 292 292 291 287 287 287 284 284 283 280 280 282 282 284 281 285 288 288 287 287 288 288 289
302 301 302 302 304 304 304 303 300 296 296 294 293 290 286 283 288 290 292 291 290 290 289 288 289 286 283 284 281 279 279 278 278 280 281 281 281 284 286 286 286 286 287 287 287
302 300 301 301 302 302 303 300 295 292 289 283 283 283 283 288 290 288 290 289 289 287 283 284 282 278 277 278 278 278 277 277 278 279 278 278 279 283 284 285 285 285 286 286 286
302 300 300 300 299 299 301 293 289 291 282 286 285 285 286 287 283 285 291 285 286 281 283 282 276 277 279 279 277 278 277 277 279 279 279 279 279 283 284 283 284 284 285 285 286
302 300 299 298 298 298 294 290 293 292 286 282 283 283 283 286 280 281 286 284 283 280 281 280 276 278 277 277 277 276 274 274 274 278 280 279 279 280 284 285 285 286 286 286 285
301 300 298 297 296 296 291 293 296 295 287 279 281 282 284 284 279 284 285 283 280 278 278 277 277 276 277 275 276 275 276 275 275 276 277 279 277 279 283 283 284 284 284 284 284
300 299 295 299 295 294 291 295 297 294 279 279 280 286 284 282 281 281 285 284 278 277 279 275 275 275 275 274 276 275 277 276 276 276 276 277 276 280 282 280 282 282 283 284 284
299 295 293 293 296 291 294 296 295 286 278 275 279 279 279 280 279 281 281 283 282 279 279 276 278 277 275 276 276 277 276 276 277 277 274 276 275 279 280 281 281 282 283 283 284
297 293 291 291 291 293 297 293 284 279 276 276 276 278 278 276 277 278 277 277 278 277 276 275 275 276 277 276 277 278 276 277 275 274 275 276 273 279 282 281 281 280 281 283 284
295 291 289 290 293 295 294 288 278 276 276 276 276 277 277 275 275 276 276 276 276 275 276 276 275 274 276 274 272 274 274 275 270 272 274 274 271 279 283 283 282 282 282 283 283
293 292 290 290 292 293 290 282 283 278 277 276 275 276 274 274 275 276 276 276 274 274 276 275 272 275 275 276 275 273 274 273 271 268 268 275 278 281 281 280 281 281 282 282 282
293 290 286 289 291 292 285 283 276 277 277 278 278 276 277 273 274 275 274 276 274 275 274 273 273 273 274 276 275 274 276 271 272 268 268 274 273 276 277 279 281 280 280 281 282
290 288 286 289 290 288 283 280 274 278 279 276 276 273 275 274 275 276 276 274 276 275 276 273 272 271 272 271 273 271 272 271 271 271 270 269 275 283 280 282 281 281 280 281 282
289 284 287 288 284 281 280 275 277 277 278 277 276 276 276 274 274 274 275 273 278 277 273 274 273 272 273 274 274 274 273 274 271 269 270 268 270 281 279 280 280 280 281 281 282
289 286 287 287 283 280 274 274 277 275 276 276 275 277 276 274 273 274 274 276 277 276 274 274 273 272 270 270 271 269 272 273 272 270 268 268 273 279 278 279 280 280 281 281 281
288 284 284 284 280 281 276 275 274 278 276 276 275 276 275 273 274 272 273 275 277 277 277 277 272 270 274 270 271 267 270 272 270 268 270 270 274 278 279 279 280 281 281 281 281
285 280 275 283 279 278 278 276 274 273 275 277 274 275 274 269 271 271 274 274 276 277 277 275 268 268 269 271 271 270 269 270 269 270 269 273 274 278 280 279 279 280 280 280 280
285 282 276 273 274 276 276 275 275 275 274 273 273 276 274 272 275 272 274 274 273 275 274 274 269 264 264 271 270 268 270 270 270 271 271 271 271 278 279 280 279 279 279 279 279
284 282 284 275 276 277 281 277 276 277 277 277 276 276 274 275 278 277 279 277 277 273 273 270 270 266 267 267 267 265 267 269 270 271 271 268 274 279 278 278 279 279 279 278 279
Wind_Speed
13 13 13 12 11 10 8 7 7 6 4 4 3 3 5 4 6 4 12 14 14 22 21 10 3 2 2 2 1 3 6 8 9 4 6 10 8 9 11 10 10 19 19 21 23
14 14 13 12 11 10 9 8 8 7 5 5 4 4 3 6 7 15 14 20 18 17 9 6 2 1 3 3 2 5 4 4 10 10 7 7 8 11 9 10 13 21 21 24 23
16 16 15 14 11 10 11 5 5 7 7 6 5 4 3 6 3 6 25 25 20 15 8 8 5 3 3 4 4 3 4 6 9 11 7 7 8 9 11 2 15 19 22 22 21
16 16 16 14 15 12 9 7 3 4 8 6 4 3 4 4 3 11 25 23 20 13 8 4 5 4 6 7 4 7 4 5 7 9 8 6 6 4 15 12 14 16 16 18 19
16 16 15 16 13 13 11 8 4 4 8 6 5 7 4 5 7 16 20 16 10 8 5 3 5 3 7 3 4 5 5 2 7 11 12 8 5 3 17 13 12 12 14 16 18
16 16 14 11 12 13 10 17 9 8 9 8 5 3 5 4 8 16 13 9 9 4 5 3 2 2 4 2 4 3 2 5 6 11 9 12 10 4 16 12 12 13 15 16 18
16 15 13 14 16 14 13 13 12 10 11 9 3 3 14 6 8 12 12 11 7 4 6 9 4 2 1 6 1 2 6 5 10 12 4 11 7 10 11 10 11 11 13 15 18
16 15 12 12 11 11 14 10 12 9 6 6 3 3 7 3 7 15 13 10 11 8 8 8 8 7 5 1 3 3 4 8 11 11 6 9 8 10 10 11 13 13 13 13 16
16 15 13 13 11 10 9 9 5 9 6 4 2 2 5 1 8 14 10 7 4 7 7 5 5 4 5 6 6 3 0 3 4 8 9 7 6 7 7 9 11 12 13 13 14
16 16 13 11 13 10 9 5 7 0 8 2 5 2 5 6 7 10 7 9 3 3 0 5 3 7 12 3 1 3 2 2 3 8 11 5 5 3 6 8 10 12 13 15 16
15 15 12 10 11 9 6 3 5 4 13 8 7 5 3 8 5 10 8 6 0 5 4 7 11 10 10 10 7 4 1 3 2 3 7 1 4 6 1 5 10 12 13 15 15
14 15 12 8 6 8 4 2 3 5 11 8 6 6 5 5 2 18 14 2 4 5 3 7 9 6 4 5 2 2 2 5 3 2 5 3 8 9 8 1 4 9 12 14 16
14 14 13 7 5 2 5 4 2 3 2 5 4 5 4 7 7 12 11 4 10 14 8 7 5 1 2 8 0 6 7 6 4 8 5 9 8 13 12 10 3 6 8 11 15
15 13 13 6 2 1 4 2 3 4 3 2 1 5 3 2 5 6 6 3 4 5 6 8 3 1 1 5 6 2 7 6 5 6 2 4 1 12 11 9 4 5 9 12 13
14 12 8 10 4 1 4 1 3 4 3 5 3 2 4 3 2 10 6 5 5 4 3 5 3 4 2 3 5 4 9 4 3 4 5 6 5 9 7 8 5 4 7 9 10
12 11 5 1 3 3 1 2 4 2 7 3 0 0 3 4 3 2 2 6 3 5 11 5 1 2 4 6 3 8 2 3 3 3 3 7 3 8 9 5 5 2 6 8 10
6 11 5 3 3 1 2 4 2 5 2 3 3 2 4 3 3 3 3 4 1 4 4 3 3 1 4 4 3 5 3 1 3 3 2 6 5 8 6 7 5 4 6 7 8
5 2 6 5 2 2 3 1 5 3 3 1 3 5 2 1 3 1 3 4 5 1 3 5 5 2 3 4 4 5 3 3 4 3 5 6 8 3 5 8 7 6 6 7 7
2 1 2 6 4 3 2 2 3 1 5 9 5 4 3 2 1 3 0 3 3 3 3 3 3 3 3 2 4 3 1 3 2 2 3 5 5 8 9 10 10 9 7 6 7
2 2 4 7 5 4 3 2 2 1 2 3 5 3 7 5 5 4 5 4 5 1 1 3 3 2 4 1 3 4 5 3 3 3 6 6 6 10 11 13 13 12 9 6 7
2 2 4 4 4 2 2 3 2 3 1 2 2 4 2 5 4 4 4 4 3 5 2 2 2 5 1 7 5 5 4 3 3 3 4 6 5 4 3 7 9 9 5 6 10
0 1 5 4 2 1 1 4 2 7 2 1 1 2 4 6 5 5 6 0 8 7 3 3 1 4 2 4 2 4 4 7 4 5 5 4 11 1 1 3 3 8 7 10 12
1 2 2 5 3 4 2 2 2 4 4 4 3 1 2 6 3 5 5 4 10 7 5 6 3 2 4 3 2 5 10 9 1 2 10 5 7 4 5 4 6 9 12 14 13
1 2 2 3 1 3 6 4 4 2 3 3 3 3 4 4 2 5 6 5 9 6 4 4 2 6 6 4 3 5 9 15 10 6 7 16 21 16 15 12 11 13 15 15 13
3 2 3 2 2 4 2 8 6 6 3 6 3 7 5 4 4 5 6 6 7 8 7 3 5 3 11 12 12 11 8 15 22 21 12 16 18 19 15 17 20 18 16 13 13
1 2 2 3 1 3 3 8 9 5 9 5 5 9 8 4 3 7 9 7 6 9 7 4 2 2 5 10 10 16 17 22 25 24 26 31 32 29 23 17 10 11 12 11 12
1 1 3 2 3 2 2 4 8 8 6 2 7 6 9 9 4 3 5 1 5 10 14 7 4 2 5 1 10 13 23 21 16 11 18 22 24 18 16 15 12 12 11 11 13
Wind_Direction
7 359 354 348 337 326 313 295 282 276 269 266 279 290 317 318 183 61 47 341 326 324 317 294 289 321 228 143 250 297 246 262 292 327 96 41 355 15 334 290 354 1 9 354 349
4 360 355 347 336 323 302 285 275 263 248 231 248 270 297 328 83 68 4 342 337 332 323 346 25 255 155 149 166 224 249 297 38 36 18 347 352 354 326 348 7 343 347 350 349
2 359 356 350 343 327 317 298 261 237 222 207 227 258 301 290 218 22 348 340 336 324 295 297 288 275 187 174 167 182 258 41 60 31 1 15 4 330 345 31 3 339 344 345 349
3 360 353 351 339 340 344 333 330 223 197 192 203 205 247 245 254 352 339 332 329 320 289 278 236 218 209 192 175 207 83 34 35 29 27 26 325 24 60 5 337 4 348 352 0
3 1 355 351 10 22 41 37 43 161 164 170 154 150 223 74 21 337 337 334 331 331 7 308 242 245 213 163 184 241 96 51 54 23 31 338 346 102 29 1 12 0 4 5 6
6 2 1 2 22 39 51 33 87 113 141 148 136 251 241 127 338 346 347 360 360 345 54 6 10 308 105 133 264 88 124 67 38 8 43 359 36 155 14 10 29 17 18 15 14
8 6 8 13 20 34 42 40 53 107 104 95 34 122 63 79 357 360 1 19 27 5 85 32 333 282 220 141 55 153 190 180 42 13 28 333 92 34 5 15 35 41 26 18 16
9 9 5 3 3 3 11 54 58 70 69 53 286 76 71 2 354 14 5 50 38 45 55 25 26 83 23 102 142 176 212 206 68 14 358 329 101 43 22 24 35 34 34 26 19
7 6 2 4 4 0 9 44 64 54 37 287 305 309 81 189 14 353 13 5 23 60 58 53 74 79 172 208 176 158 333 19 104 49 351 341 103 54 23 29 26 26 26 23 17
360 3 357 348 353 344 334 315 41 156 350 97 60 130 51 5 349 334 2 346 357 297 165 26 51 83 36 296 74 32 360 5 332 18 358 47 115 46 34 24 20 14 13 13 10
356 359 351 344 355 350 320 229 204 94 41 55 26 73 55 343 306 13 342 315 339 43 76 19 72 59 37 34 44 54 319 337 76 83 326 128 254 218 318 5 9 3 0 359 360
355 355 353 348 332 341 300 339 34 94 99 51 58 79 47 321 337 18 348 52 29 93 123 95 71 43 33 31 77 27 295 38 187 174 299 217 269 209 210 240 354 352 352 352 349
353 356 354 343 336 1 45 68 5 327 83 54 45 33 353 350 37 3 0 11 53 67 69 67 82 16 356 44 86 52 21 348 311 310 234 283 229 194 206 219 248 351 354 354 353
350 356 355 327 244 90 62 97 303 320 117 74 69 52 347 352 72 22 14 359 55 94 63 73 91 107 126 76 336 178 4 307 278 294 328 340 354 194 197 212 211 341 0 354 352
347 353 360 14 96 189 87 269 293 252 254 67 75 357 29 52 38 36 358 56 74 92 251 87 73 28 55 21 338 37 328 280 262 279 302 168 254 111 166 227 212 320 344 356 356
350 360 341 115 75 62 263 245 256 54 245 120 330 306 159 47 59 356 78 63 14 81 66 86 79 343 352 301 254 298 306 196 233 293 252 112 341 181 184 194 191 261 330 345 351
358 41 39 351 67 27 201 235 72 223 36 152 137 130 102 60 84 20 66 61 350 153 177 162 138 99 346 299 195 319 284 197 213 224 298 132 282 285 164 178 202 258 310 329 338
24 5 54 45 358 200 233 91 232 63 198 138 136 110 139 356 72 89 152 132 71 266 153 205 201 180 21 33 345 9 350 346 283 273 348 151 236 238 166 177 199 234 272 290 318
221 116 64 18 344 279 240 199 319 65 127 164 144 180 144 150 245 183 59 128 79 3 264 168 160 124 53 43 319 51 181 44 300 101 282 233 231 225 186 203 218 236 250 284 296
240 166 45 331 323 252 78 261 201 16 121 179 224 263 177 168 192 212 176 143 140 49 349 110 204 225 114 211 110 304 120 199 166 269 271 218 267 259 201 215 216 219 233 266 290
243 209 25 327 274 51 226 131 171 200 283 244 200 137 172 166 202 180 161 146 187 140 94 144 273 117 296 198 179 158 194 202 317 259 279 296 253 40 240 208 213 226 235 277 304
182 198 9 283 75 359 150 140 213 157 180 159 125 108 180 155 161 213 208 303 164 159 166 154 304 227 200 109 323 323 242 204 242 175 249 305 273 75 236 250 236 265 256 280 306
141 112 66 283 201 156 125 133 184 171 194 176 172 190 182 170 193 193 180 130 166 171 168 173 189 239 192 192 203 229 212 217 222 289 228 230 255 133 151 214 256 267 272 278 307
231 154 90 62 46 149 157 167 169 178 180 154 141 110 154 160 168 179 183 162 180 191 136 170 242 257 276 40 69 206 208 207 196 217 243 226 271 269 281 278 281 293 304 304 298
4 86 4 168 186 142 175 158 156 185 244 190 186 223 177 139 159 210 172 150 181 190 181 201 249 223 274 273 256 244 228 209 215 221 242 271 276 281 291 307 301 297 293 294 294
351 177 167 93 325 193 190 202 184 165 162 216 230 189 182 176 204 185 166 183 186 176 196 154 245 69 265 267 270 262 250 237 236 241 253 261 274 268 278 282 297 295 291 293 296
70 125 285 125 169 223 203 189 199 153 201 305 201 163 208 231 185 57 169 135 153 172 185 170 207 187 269 97 309 271 234 221 213 218 228 245 252 286 283 286 295 291 298 293 300